sat.trackr.live / text

‹ back to catalog

STARLINK-4502

NORAD 53557 · 2022-101AG

PAYLOAD ACTIVE UNKNOWN

§ Identity

Operator
Country
US
Launch date
2022-08-19
Launch site
AFETR
Launch vehicle
Mass (kg)
RCS (m²)

Purposes: comms

External: N2YO · Heavens-Above · Gunter

§ Orbital elements

Epoch: 2026-09-20T00:15:57.521088Z

Period
95.44 min
Inclination
53.1601°
Eccentricity
0.0001190
Mean motion
15.08830469 rev/d
Perigee alt
538.9 km
Apogee alt
540.6 km
Semi-major
6,917.9 km
B*
4.1530e-5
RAAN
271.1199°
Arg perigee
76.2099°
Mean anomaly
283.9025°
Rev number
22,629

§ Raw data

STARLINK-45021 53557U 22101AG  26263.01108242  .00000373  00000+0  41530-4 0  99972 53557  53.1601 271.1199 0001190  76.2099 283.9025 15.08830469226291

JSON: /api/v1/satellites/53557 · /tle

For live sub-satellite position, see the globe view (requires WebGL).

§ Visibility from observer

Set your observer location to see the next 7 days of passes ≥ 10°. The values pass through the URL so the page stays shareable.

No JS? Fill the form by hand. The geolocation button needs JavaScript.